period_start,C,m1,H,J0,J1,J2,J3,J4,J5,JA,JB,JC,JD,JJ,JK,JN,#
2014-04-03 00:00:33,0.21,4.18,0.00,17.91,24.24,27.21,6.14,31.71,1009.80,2051.71,2126.16,2345.03,2532.69,350.12,327.52,26.22,0000 0000 0000 0000 000000
2014-04-03 00:01:33,0.13,4.18,0.00,17.91,24.24,27.24,5.98,31.67,1009.81,2051.68,2126.04,2344.96,2532.32,348.91,326.40,26.23,0000 0000 0000 0000 000000
2014-04-03 00:02:34,0.11,4.18,0.00,17.92,24.24,27.27,6.17,31.42,1009.82,2051.58,2125.83,2344.53,2532.12,351.12,328.76,26.23,0000 0000 0000 0000 000000
2014-04-03 00:03:34,0.19,4.18,0.00,17.92,24.24,27.25,6.02,31.67,1009.83,2051.57,2125.34,2344.20,2532.04,349.26,326.61,26.24,0000 0000 0000 0000 000000
2014-04-03 00:04:34,0.26,4.18,0.00,17.92,24.24,27.21,6.14,31.46,1009.82,2051.61,2125.12,2344.07,2531.93,350.30,327.22,26.24,0000 0000 0000 0000 000000
2014-04-03 00:05:35,0.13,4.18,0.00,17.91,24.24,27.18,6.20,31.46,1009.85,2051.48,2124.96,2344.01,2531.47,350.50,327.78,26.25,0000 0000 0000 0000 000000
2014-04-03 00:06:35,0.06,4.18,0.00,17.92,24.24,27.23,6.13,31.46,1009.81,2051.53,2124.50,2343.76,2531.17,350.05,327.63,26.25,0000 0000 0000 0000 000000
2014-04-03 00:07:35,0.24,4.19,0.00,17.92,24.24,27.22,6.11,31.50,1009.80,2051.43,2124.18,2343.33,2531.05,349.86,327.28,26.26,0000 0000 0000 0000 000000
2014-04-03 00:08:36,0.25,4.19,0.00,17.92,24.23,27.22,6.15,31.50,1009.80,2051.36,2124.04,2343.12,2530.93,350.91,327.75,26.27,0000 0000 0000 0000 000000
2014-04-03 00:09:36,0.11,4.19,0.00,17.92,24.23,27.22,6.13,31.67,1009.82,2051.40,2123.83,2343.04,2530.48,350.14,327.55,26.27,0000 0000 0000 0000 000000
2014-04-03 00:10:36,0.17,4.19,0.00,17.92,24.23,27.25,6.17,31.83,1009.82,2051.32,2123.38,2342.93,2530.18,349.68,327.12,26.28,0000 0000 0000 0000 000000
2014-04-03 00:11:37,0.18,4.19,0.00,17.92,24.23,27.27,6.03,31.63,1009.81,2051.36,2123.15,2342.73,2530.07,349.82,327.01,26.28,0000 0000 0000 0000 000000
2014-04-03 00:12:37,0.23,4.19,0.00,17.92,24.23,27.25,6.23,31.63,1009.82,2051.50,2123.04,2342.32,2529.99,350.53,327.91,26.29,0000 0000 0000 0000 000000
2014-04-03 00:13:37,0.27,4.19,0.00,17.94,24.23,27.25,6.16,31.54,1009.78,2051.47,2122.73,2342.12,2529.69,350.30,327.66,26.30,0000 0000 0000 0000 000000
2014-04-03 00:14:38,0.19,4.19,0.00,17.93,24.23,27.21,6.13,31.67,1009.78,2051.39,2122.28,2342.04,2529.29,350.04,327.43,26.30,0000 0000 0000 0000 000000
2014-04-03 00:15:38,0.19,4.19,0.00,17.94,24.23,27.20,6.06,31.75,1009.79,2051.46,2122.10,2341.98,2529.10,349.64,326.84,26.31,0000 0000 0000 0000 000000
2014-04-03 00:16:38,0.20,4.20,0.00,17.94,24.22,27.23,6.15,31.75,1009.80,2051.55,2121.96,2341.65,2529.03,349.94,326.85,26.31,0000 0000 0000 0000 000000
2014-04-03 00:17:39,0.26,4.20,0.00,17.93,24.22,27.23,6.07,31.92,1009.80,2051.59,2121.47,2341.27,2528.88,350.16,327.24,26.32,0000 0000 0000 0000 000000
2014-04-03 00:18:39,0.32,4.20,0.00,17.92,24.22,27.21,6.18,31.83,1009.82,2051.61,2121.17,2341.09,2528.45,349.33,326.96,26.32,0000 0000 0000 0000 000000
2014-04-03 00:19:39,0.22,4.20,0.00,17.93,24.22,27.25,6.20,31.67,1009.85,2051.61,2121.05,2341.03,2528.17,350.77,328.14,26.33,0000 0000 0000 0000 000000
2014-04-03 00:20:40,0.10,4.20,0.00,17.93,24.22,27.24,6.13,31.79,1009.85,2051.46,2120.76,2340.87,2528.05,349.77,327.38,26.34,0000 0000 0000 0000 000000
2014-04-03 00:21:40,0.12,4.20,0.00,17.94,24.22,27.22,6.11,31.71,1009.87,2051.42,2120.30,2340.46,2527.99,350.63,328.00,26.34,0000 0000 0000 0000 000000
2014-04-03 00:22:40,0.19,4.20,0.00,17.94,24.22,27.23,6.04,31.79,1009.94,2051.39,2120.11,2340.17,2527.69,349.50,326.99,26.35,0000 0000 0000 0000 000000
2014-04-03 00:23:40,0.16,4.21,0.00,17.94,24.22,27.22,6.09,31.96,1010.06,2051.37,2119.96,2340.06,2527.26,349.56,326.85,26.35,0000 0000 0000 0000 000000
2014-04-03 00:24:41,0.20,4.21,0.00,17.94,24.22,27.22,6.27,31.75,1010.14,2051.41,2119.67,2340.01,2527.09,351.54,329.25,26.36,0000 0000 0000 0000 000000
2014-04-03 00:25:41,0.16,4.21,0.00,17.94,24.22,27.24,6.13,31.79,1010.23,2051.46,2119.25,2339.74,2527.00,349.17,326.75,26.37,0000 0000 0000 0000 000000
2014-04-03 00:26:41,0.26,4.21,0.00,17.94,24.22,27.22,6.02,31.88,1010.26,2051.53,2119.08,2339.34,2526.68,349.81,327.36,26.37,0000 0000 0000 0000 000000
2014-04-03 00:27:42,0.34,4.21,0.00,17.94,24.22,27.19,6.12,31.88,1010.27,2051.52,2118.96,2339.12,2526.26,349.96,327.44,26.38,0000 0000 0000 0000 000000
2014-04-03 00:28:42,0.16,4.21,0.00,17.94,24.22,27.23,6.15,31.71,1010.27,2051.39,2118.64,2339.04,2526.09,349.42,326.99,26.38,0000 0000 0000 0000 000000
2014-04-03 00:29:42,0.04,4.21,0.00,17.94,24.22,27.26,6.13,32.33,1010.27,2051.33,2118.24,2338.98,2526.00,348.73,326.81,26.39,0000 0000 0000 0000 000000
2014-04-03 00:30:42,0.08,4.21,0.00,17.95,24.22,27.22,6.18,32.04,1010.27,2051.28,2118.08,2338.68,2525.68,349.73,327.59,26.40,0000 0000 0000 0000 000000
2014-04-03 00:31:43,0.19,4.21,0.00,17.96,24.22,27.23,6.18,32.08,1010.27,2051.18,2117.70,2338.28,2525.28,350.37,328.06,26.40,0000 0000 0000 0000 000000
2014-04-03 00:32:43,0.24,4.21,0.00,17.95,24.22,27.21,6.13,32.13,1010.27,2051.17,2117.26,2338.10,2525.10,349.27,326.85,26.41,0000 0000 0000 0000 000000
2014-04-03 00:33:43,0.19,4.22,0.00,17.96,24.22,27.20,6.10,31.71,1010.27,2051.21,2117.08,2338.03,2525.03,350.58,328.06,26.41,0000 0000 0000 0000 000000
2014-04-03 00:34:44,0.16,4.22,0.00,17.96,24.22,27.20,6.17,31.83,1010.27,2051.32,2117.00,2337.99,2524.92,349.45,327.00,26.42,0000 0000 0000 0000 000000
2014-04-03 00:35:44,0.16,4.22,0.00,17.95,24.22,27.22,6.12,31.79,1010.27,2051.46,2116.72,2337.68,2524.49,350.45,327.95,26.42,0000 0000 0000 0000 000000
2014-04-03 00:36:44,0.41,4.22,0.00,17.96,24.22,27.18,6.07,31.92,1010.27,2051.62,2116.32,2337.32,2524.20,349.66,327.20,26.43,0000 0000 0000 0000 000000
2014-04-03 00:37:44,0.44,4.22,0.00,17.97,24.22,27.22,6.12,31.71,1010.27,2051.62,2116.11,2337.12,2524.07,349.52,327.06,26.44,0000 0000 0000 0000 000000
2014-04-03 00:38:45,0.14,4.22,0.00,17.97,24.22,27.21,6.16,31.96,1010.27,2051.51,2115.86,2337.04,2523.97,350.32,327.82,26.44,0000 0000 0000 0000 000000
2014-04-03 00:39:45,0.08,4.22,0.00,17.95,24.22,27.22,6.04,31.96,1010.27,2051.37,2115.36,2336.91,2523.54,349.64,326.95,26.45,0000 0000 0000 0000 000000
2014-04-03 00:40:45,0.16,4.23,0.00,17.95,24.22,27.21,6.27,31.92,1010.28,2051.42,2115.12,2336.53,2523.22,351.52,329.07,26.45,0000 0000 0000 0000 000000
2014-04-03 00:41:45,0.26,4.23,0.00,17.97,24.22,27.23,6.05,31.75,1010.27,2051.52,2115.01,2336.19,2523.07,350.27,327.76,26.46,0000 0000 0000 0000 000000
2014-04-03 00:42:46,0.32,4.23,0.00,17.96,24.22,27.20,6.02,31.88,1010.27,2051.68,2114.76,2336.07,2523.00,348.57,326.17,26.47,0000 0000 0000 0000 000000
2014-04-03 00:43:46,0.29,4.23,0.00,17.95,24.22,27.20,6.08,31.83,1010.27,2051.75,2114.34,2336.01,2522.84,349.76,327.30,26.47,0000 0000 0000 0000 000000
2014-04-03 00:44:46,0.20,4.23,0.00,17.95,24.22,27.19,6.14,32.04,1010.28,2051.68,2114.13,2335.88,2522.42,349.88,327.42,26.48,0000 0000 0000 0000 000000
2014-04-03 00:45:46,0.15,4.23,0.00,17.94,24.22,27.21,6.16,31.71,1010.30,2051.66,2113.97,2335.43,2522.15,349.84,327.40,26.48,0000 0000 0000 0000 000000
2014-04-03 00:46:47,0.19,4.23,0.00,17.94,24.22,27.19,6.17,31.75,1010.32,2051.69,2113.56,2335.16,2522.05,350.57,328.08,26.49,0000 0000 0000 0000 000000
2014-04-03 00:47:47,0.27,4.24,0.00,17.94,24.22,27.20,6.10,31.79,1010.37,2051.79,2113.22,2335.05,2522.01,349.03,326.66,26.49,0000 0000 0000 0000 000000
2014-04-03 00:48:47,0.22,4.24,0.00,17.94,24.22,27.21,6.04,31.83,1010.58,2051.76,2113.08,2335.02,2521.64,349.63,327.07,26.50,0000 0000 0000 0000 000000
2014-04-03 00:49:47,0.09,4.24,0.00,17.94,24.22,27.16,6.19,31.79,1010.71,2051.63,2113.00,2334.78,2521.25,350.57,328.21,26.51,0000 0000 0000 0000 000000
2014-04-03 00:50:48,0.09,4.24,0.00,17.94,24.22,27.19,6.22,31.83,1010.72,2051.53,2112.70,2334.37,2521.09,349.65,327.19,26.51,0000 0000 0000 0000 000000
2014-04-03 00:51:48,0.23,4.24,0.00,17.96,24.22,27.19,6.19,31.83,1010.74,2051.57,2112.30,2334.13,2520.99,350.05,327.72,26.52,0000 0000 0000 0000 000000
2014-04-03 00:52:48,0.16,4.24,0.00,17.96,24.22,27.21,6.18,31.63,1010.76,2051.45,2112.11,2334.05,2520.63,350.15,327.73,26.52,0000 0000 0000 0000 000000
2014-04-03 00:53:49,0.07,4.24,0.00,17.97,24.22,27.22,6.14,31.83,1010.75,2051.40,2111.87,2333.96,2520.23,349.65,327.22,26.53,0000 0000 0000 0000 000000
2014-04-03 00:54:49,0.16,4.24,0.00,17.97,24.22,27.22,6.13,31.58,1010.76,2051.36,2111.39,2333.59,2520.08,350.56,328.40,26.54,0000 0000 0000 0000 000000
2014-04-03 00:55:49,0.28,4.24,0.00,17.97,24.22,27.24,6.05,31.46,1010.76,2051.44,2111.14,2333.28,2520.03,350.17,327.89,26.54,0000 0000 0000 0000 000000
2014-04-03 00:56:49,0.19,4.24,0.00,17.97,24.22,27.25,6.27,31.75,1010.76,2051.44,2111.05,2333.11,2519.95,351.41,329.04,26.55,0000 0000 0000 0000 000000
2014-04-03 00:57:50,0.11,4.24,0.00,17.97,24.22,27.26,6.18,31.50,1010.76,2051.43,2111.00,2333.04,2519.52,349.38,327.08,26.55,0000 0000 0000 0000 000000
2014-04-03 00:58:50,0.17,4.25,0.00,17.97,24.22,27.24,6.03,31.67,1010.76,2051.41,2110.64,2332.96,2519.19,349.54,326.81,26.56,0000 0000 0000 0000 000000
2014-04-03 00:59:50,0.17,4.25,0.00,17.97,24.22,27.26,6.19,31.50,1010.76,2051.32,2110.24,2332.53,2519.07,350.91,328.52,26.57,0000 0000 0000 0000 000000
2014-04-03 01:00:50,0.21,4.25,0.00,17.97,24.22,27.23,6.18,31.46,1010.76,2051.34,2110.08,2332.21,2518.90,350.71,328.33,26.57,0000 0000 0000 0000 000000
2014-04-03 01:01:51,0.18,4.25,0.00,17.96,24.22,27.23,6.13,31.63,1010.76,2051.33,2109.95,2332.08,2518.45,349.90,327.59,26.58,0000 0000 0000 0000 000000
2014-04-03 01:02:51,0.18,4.25,0.00,17.96,24.22,27.22,6.17,31.46,1010.82,2051.31,2109.62,2332.03,2518.18,349.82,327.53,26.58,0000 0000 0000 0000 000000
2014-04-03 01:03:51,0.15,4.25,0.00,17.97,24.22,27.22,6.21,31.13,1010.88,2051.38,2109.25,2331.92,2518.07,350.35,328.03,26.59,0000 0000 0000 0000 000000
2014-04-03 01:04:51,0.22,4.25,0.00,17.97,24.22,27.24,6.06,31.71,1011.01,2051.32,2109.09,2331.49,2518.00,349.09,326.90,26.59,0000 0000 0000 0000 000000
2014-04-03 01:05:52,0.14,4.25,0.00,17.97,24.22,27.24,6.13,31.46,1011.14,2051.21,2108.86,2331.19,2517.66,350.92,328.65,26.60,0000 0000 0000 0000 000000
2014-04-03 01:06:52,0.18,4.25,0.00,17.97,24.22,27.27,6.08,31.42,1011.21,2051.26,2108.35,2331.07,2517.27,349.59,327.43,26.61,0000 0000 0000 0000 000000
2014-04-03 01:07:52,0.27,4.26,0.00,17.97,24.22,27.25,6.18,31.42,1011.22,2051.31,2108.12,2331.01,2517.09,350.73,328.50,26.61,0000 0000 0000 0000 000000
2014-04-03 01:08:53,0.17,4.26,0.00,17.98,24.22,27.23,6.23,31.58,1011.24,2051.28,2108.03,2330.79,2517.02,350.36,327.86,26.62,0000 0000 0000 0000 000000
2014-04-03 01:09:53,0.12,4.26,0.00,17.97,24.22,27.24,6.00,31.54,1011.24,2051.23,2107.76,2330.42,2516.83,349.05,326.92,26.62,0000 0000 0000 0000 000000
2014-04-03 01:10:53,0.21,4.26,0.00,17.98,24.22,27.24,6.05,31.21,1011.24,2051.19,2107.29,2330.17,2516.41,349.02,326.89,26.63,0000 0000 0000 0000 000000
2014-04-03 01:11:54,0.25,4.26,0.00,17.99,24.22,27.20,6.12,31.25,1011.24,2051.21,2107.11,2330.06,2516.16,349.94,327.90,26.64,0000 0000 0000 0000 000000
2014-04-03 01:12:54,0.16,4.26,0.00,17.99,24.22,27.20,6.09,31.33,1011.24,2051.18,2106.91,2329.98,2516.03,349.19,327.14,26.64,0000 0000 0000 0000 000000
2014-04-03 01:13:54,0.12,4.26,0.00,17.99,24.22,27.18,6.12,31.29,1011.24,2051.09,2106.40,2329.56,2515.79,349.72,327.58,26.65,0000 0000 0000 0000 000000
2014-04-03 01:14:54,0.24,4.26,0.00,17.99,24.22,27.20,6.15,31.46,1011.25,2051.15,2106.14,2329.22,2515.36,349.73,327.55,26.65,0000 0000 0000 0000 000000
2014-04-03 01:15:55,0.30,4.27,0.00,17.99,24.22,27.19,6.27,31.17,1011.25,2051.16,2106.04,2329.08,2515.13,351.01,327.90,26.66,0000 0000 0000 0000 000000
2014-04-03 01:16:55,0.13,4.27,0.00,17.99,24.22,27.20,6.22,31.17,1011.25,2051.13,2105.69,2329.02,2515.04,350.21,327.61,26.67,0000 0000 0000 0000 000000
2014-04-03 01:17:55,0.14,4.27,0.00,18.00,24.22,27.22,6.19,31.21,1011.25,2051.17,2105.29,2328.96,2515.00,350.31,328.08,26.67,0000 0000 0000 0000 000000
2014-04-03 01:18:55,0.21,4.27,0.00,18.01,24.22,27.24,6.11,31.42,1011.25,2051.23,2105.10,2328.61,2514.64,350.40,328.14,26.68,0000 0000 0000 0000 000000
2014-04-03 01:19:56,0.29,4.27,0.00,18.01,24.22,27.23,6.13,31.50,1011.25,2051.29,2104.96,2328.23,2514.24,350.41,328.16,26.68,0000 0000 0000 0000 000000
2014-04-03 01:20:56,0.27,4.27,0.00,18.01,24.22,27.22,6.13,31.50,1011.25,2051.22,2104.53,2328.09,2514.08,349.96,327.51,26.69,0000 0000 0000 0000 000000
2014-04-03 01:21:56,0.18,4.27,0.00,18.01,24.22,27.23,6.05,31.50,1011.25,2051.25,2104.20,2328.03,2514.02,349.25,327.08,26.69,0000 0000 0000 0000 000000
2014-04-03 01:22:56,0.14,4.27,0.00,18.01,24.22,27.19,6.08,31.13,1011.26,2051.29,2104.07,2327.99,2513.86,350.44,328.20,26.70,0000 0000 0000 0000 000000
2014-04-03 01:23:57,0.17,4.27,0.00,17.99,24.22,27.19,6.02,31.08,1011.29,2051.27,2103.88,2327.56,2513.42,349.36,327.06,26.71,0000 0000 0000 0000 000000
2014-04-03 01:24:57,0.28,4.28,0.00,18.00,24.22,27.19,5.98,31.42,1011.30,2051.24,2103.39,2327.21,2513.15,349.19,327.05,26.71,0000 0000 0000 0000 000000
2014-04-03 01:25:57,0.28,4.28,0.00,18.02,24.22,27.17,5.99,31.08,1011.36,2051.31,2103.14,2327.08,2513.05,348.67,326.56,26.72,0000 0000 0000 0000 000000
2014-04-03 01:26:57,0.14,4.28,0.00,18.03,24.22,27.18,6.06,31.33,1011.41,2051.31,2103.03,2327.02,2512.95,349.09,326.96,26.72,0000 0000 0000 0000 000000
2014-04-03 01:27:58,0.13,4.28,0.00,18.04,24.23,27.21,6.10,31.17,1011.50,2051.34,2102.88,2326.89,2512.52,349.95,327.76,26.73,0000 0000 0000 0000 000000
2014-04-03 01:28:58,0.22,4.28,0.00,18.06,24.23,27.20,6.21,31.33,1011.58,2051.30,2102.48,2326.44,2512.20,350.21,328.02,26.74,0000 0000 0000 0000 000000
2014-04-03 01:29:58,0.25,4.28,0.00,18.07,24.24,27.20,6.06,31.17,1011.65,2051.24,2102.18,2326.17,2512.07,349.94,327.79,26.74,0000 0000 0000 0000 000000
2014-04-03 01:30:58,0.11,4.28,0.00,18.07,24.24,27.16,6.06,31.46,1011.69,2051.12,2102.05,2326.05,2512.00,350.09,327.92,26.75,0000 0000 0000 0000 000000
2014-04-03 01:31:59,0.02,4.28,0.00,18.09,24.24,27.18,6.05,31.54,1011.71,2051.09,2101.84,2325.97,2511.72,350.23,328.07,26.75,0000 0000 0000 0000 000000
2014-04-03 01:32:59,0.17,4.28,0.00,18.09,24.24,27.17,6.18,31.42,1011.73,2051.08,2101.37,2325.76,2511.28,351.41,328.70,26.76,0000 0000 0000 0000 000000
2014-04-03 01:33:59,0.27,4.29,0.00,18.09,24.24,27.17,6.08,31.29,1011.73,2051.06,2101.14,2325.36,2511.10,349.81,327.72,26.76,0000 0000 0000 0000 000000
2014-04-03 01:34:59,0.20,4.29,0.00,18.10,24.25,27.16,6.13,31.33,1011.73,2051.06,2101.04,2325.13,2511.03,349.27,327.15,26.77,0000 0000 0000 0000 000000
2014-04-03 01:35:59,0.10,4.29,0.00,18.12,24.25,27.18,6.11,31.50,1011.73,2051.07,2100.95,2325.05,2510.99,349.94,327.76,26.78,0000 0000 0000 0000 000000
2014-04-03 01:37:00,0.09,4.29,0.00,18.12,24.25,27.21,6.05,31.46,1011.73,2051.12,2100.61,2325.00,2510.67,349.32,327.39,26.78,0000 0000 0000 0000 000000
2014-04-03 01:38:00,0.21,4.29,0.00,18.13,24.25,27.17,6.21,31.50,1011.73,2051.08,2100.27,2324.97,2510.30,349.74,327.06,26.79,0000 0000 0000 0000 000000
2014-04-03 01:39:01,0.17,4.29,0.00,18.13,24.25,27.14,6.21,31.67,1011.73,2051.08,2100.10,2324.58,2510.11,349.33,327.22,26.79,0000 0000 0000 0000 000000
2014-04-03 01:40:01,0.23,4.29,0.00,18.12,24.25,27.13,6.03,31.25,1011.73,2051.08,2099.91,2324.24,2510.02,349.40,327.25,26.80,0000 0000 0000 0000 000000
2014-04-03 01:41:01,0.19,4.29,0.00,18.13,24.25,27.15,6.07,31.42,1011.77,2051.07,2099.38,2324.08,2509.71,348.81,326.71,26.81,0000 0000 0000 0000 000000
2014-04-03 01:42:01,0.24,4.29,0.00,18.14,24.25,27.17,6.19,31.63,1011.78,2051.05,2099.14,2324.01,2509.32,350.72,328.48,26.81,0000 0000 0000 0000 000000
2014-04-03 01:43:01,0.17,4.30,0.00,18.14,24.25,27.17,6.01,31.38,1011.80,2051.04,2099.02,2323.80,2509.11,349.68,327.65,26.82,0000 0000 0000 0000 000000
2014-04-03 01:44:01,0.18,4.30,0.00,18.14,24.25,27.11,6.07,31.50,1011.76,2051.07,2098.68,2323.37,2509.04,349.75,327.57,26.82,0000 0000 0000 0000 000000
2014-04-03 01:45:02,0.27,4.30,0.00,18.14,24.26,27.15,6.16,31.25,1011.78,2051.05,2098.28,2323.14,2508.89,350.21,328.06,26.83,0000 0000 0000 0000 000000
2014-04-03 01:46:02,0.20,4.30,0.00,18.16,24.27,27.17,6.09,31.63,1011.78,2051.04,2098.09,2323.05,2508.42,348.53,326.41,26.84,0000 0000 0000 0000 000000
2014-04-03 01:47:02,0.17,4.30,0.00,18.18,24.27,27.15,6.13,31.33,1011.81,2051.04,2097.93,2323.00,2508.16,350.01,327.77,26.84,0000 0000 0000 0000 000000
2014-04-03 01:48:02,0.10,4.30,0.00,18.18,24.27,27.15,6.10,31.42,1011.98,2051.03,2097.62,2322.75,2508.05,349.82,327.60,26.85,0000 0000 0000 0000 000000
2014-04-03 01:49:02,0.21,4.30,0.00,18.19,24.27,27.13,6.14,31.54,1012.15,2051.01,2097.32,2322.43,2508.00,349.96,327.53,26.85,0000 0000 0000 0000 000000
2014-04-03 01:50:03,0.20,4.30,0.00,18.19,24.27,27.14,6.15,31.25,1012.14,2051.01,2097.12,2322.16,2507.85,350.25,327.82,26.86,0000 0000 0000 0000 000000
2014-04-03 01:51:03,0.17,4.30,0.00,18.21,24.27,27.08,6.28,31.33,1012.15,2051.01,2097.07,2322.06,2507.65,351.12,328.89,26.86,0000 0000 0000 0000 000000
2014-04-03 01:52:03,0.10,4.31,0.00,18.21,24.27,27.09,6.09,31.46,1012.17,2051.01,2097.03,2322.01,2507.31,349.06,326.97,26.87,0000 0000 0000 0000 000000
2014-04-03 01:53:03,0.08,4.31,0.00,18.22,24.27,27.12,6.12,31.50,1012.19,2051.01,2096.89,2321.96,2507.11,350.29,328.31,26.88,0000 0000 0000 0000 000000
2014-04-03 01:54:04,0.11,4.31,0.00,18.22,24.27,27.13,6.13,31.54,1012.22,2051.01,2096.42,2321.67,2507.03,348.87,326.80,26.88,0000 0000 0000 0000 000000
2014-04-03 01:55:04,0.27,4.31,0.00,18.24,24.28,27.15,6.12,31.50,1012.22,2051.00,2096.15,2321.28,2506.86,349.30,327.18,26.89,0000 0000 0000 0000 000000
2014-04-03 01:56:04,0.23,4.31,0.00,18.24,24.29,27.11,6.10,31.54,1012.22,2051.01,2096.05,2321.10,2506.46,349.96,327.65,26.89,0000 0000 0000 0000 000000
2014-04-03 01:57:05,0.18,4.31,0.00,18.25,24.29,27.12,6.14,31.46,1012.22,2051.01,2095.97,2321.04,2506.20,349.56,327.50,26.90,0000 0000 0000 0000 000000
2014-04-03 01:58:05,0.10,4.31,0.00,18.26,24.30,27.09,6.12,31.21,1012.25,2051.01,2095.65,2321.01,2506.07,350.20,327.83,26.91,0000 0000 0000 0000 000000
2014-04-03 01:59:05,0.13,4.31,0.00,18.27,24.30,27.06,6.03,31.21,1012.23,2051.00,2095.26,2320.82,2506.00,349.82,327.63,26.91,0000 0000 0000 0000 000000
2014-04-03 02:00:05,0.19,4.31,0.00,18.27,24.30,27.12,6.13,31.50,1012.23,2051.01,2095.09,2320.36,2505.74,349.39,327.24,26.92,0000 0000 0000 0000 000000
2014-04-03 02:01:05,0.26,4.31,0.00,18.28,24.30,27.11,6.23,31.33,1012.23,2051.01,2095.00,2320.13,2505.38,350.42,328.19,26.92,0000 0000 0000 0000 000000
2014-04-03 02:02:06,0.18,4.32,0.00,18.28,24.30,27.11,6.13,31.46,1012.25,2051.00,2094.66,2320.04,2505.14,350.59,328.46,26.93,0000 0000 0000 0000 000000
2014-04-03 02:03:06,0.19,4.32,0.00,18.28,24.30,27.10,6.05,31.46,1012.24,2051.00,2094.26,2320.00,2505.05,349.31,327.15,26.93,0000 0000 0000 0000 000000
2014-04-03 02:04:06,0.14,4.32,0.00,18.28,24.31,27.10,6.19,31.46,1012.24,2051.00,2094.09,2319.93,2504.98,350.09,327.88,26.94,0000 0000 0000 0000 000000
2014-04-03 02:05:06,0.08,4.32,0.00,18.29,24.32,27.07,6.08,31.25,1012.26,2051.00,2093.97,2319.52,2504.61,349.74,327.54,26.95,0000 0000 0000 0000 000000
2014-04-03 02:06:07,0.27,4.32,0.00,18.29,24.32,27.11,6.22,31.46,1012.26,2051.00,2093.57,2319.20,2504.27,350.03,327.81,26.95,0000 0000 0000 0000 000000
2014-04-03 02:07:07,0.31,4.32,0.00,18.31,24.32,27.10,6.07,31.33,1012.34,2051.00,2093.21,2319.07,2504.10,351.00,328.72,26.96,0000 0000 0000 0000 000000
2014-04-03 02:08:07,0.18,4.32,0.00,18.32,24.32,27.11,6.13,31.46,1012.50,2051.00,2093.07,2319.01,2504.03,350.59,328.39,26.96,0000 0000 0000 0000 000000
2014-04-03 02:09:07,0.05,4.32,0.00,18.33,24.32,27.09,6.08,31.38,1012.57,2051.00,2093.03,2318.99,2503.99,350.32,328.42,26.97,0000 0000 0000 0000 000000
2014-04-03 02:10:08,0.02,4.32,0.00,18.33,24.32,27.08,6.32,31.54,1012.66,2051.00,2092.90,2318.88,2503.78,351.19,328.98,26.98,0000 0000 0000 0000 000000
2014-04-03 02:11:08,0.15,4.32,0.00,18.33,24.34,27.08,6.17,31.38,1012.62,2051.00,2092.42,2318.47,2503.42,351.09,328.88,26.98,0000 0000 0000 0000 000000
2014-04-03 02:12:08,0.40,4.33,0.00,18.34,24.34,27.10,6.18,31.38,1012.70,2051.00,2092.16,2318.19,2503.16,350.24,327.98,26.99,0000 0000 0000 0000 000000
2014-04-03 02:13:08,0.19,4.33,0.00,18.35,24.35,27.12,6.08,31.58,1012.71,2051.00,2092.06,2318.08,2503.05,349.52,327.71,26.99,0000 0000 0000 0000 000000
2014-04-03 02:14:08,0.07,4.33,0.00,18.36,24.35,27.09,6.13,31.33,1012.71,2051.00,2092.01,2318.03,2502.99,350.02,327.77,27.00,0000 0000 0000 0000 000000
2014-04-03 02:15:09,0.04,4.33,0.00,18.37,24.35,27.10,6.18,31.58,1012.71,2051.00,2091.74,2317.98,2502.82,350.41,328.48,27.00,0000 0000 0000 0000 000000
2014-04-03 02:16:09,0.15,4.33,0.00,18.37,24.35,27.11,6.21,31.29,1012.71,2051.00,2091.31,2317.65,2502.36,350.99,328.77,27.01,0000 0000 0000 0000 000000
2014-04-03 02:17:09,0.37,4.33,0.00,18.39,24.36,27.12,6.23,31.29,1012.71,2051.00,2091.11,2317.28,2502.14,350.09,327.87,27.02,0000 0000 0000 0000 000000
2014-04-03 02:18:09,0.21,4.33,0.00,18.40,24.36,27.16,6.15,31.54,1012.71,2051.00,2091.00,2317.10,2502.04,350.00,327.86,27.02,0000 0000 0000 0000 000000
2014-04-03 02:19:09,0.10,4.33,0.00,18.40,24.37,27.13,6.16,31.42,1012.71,2051.00,2090.63,2317.03,2501.95,349.34,327.20,27.03,0000 0000 0000 0000 000000
2014-04-03 02:20:09,0.17,4.33,0.00,18.40,24.37,27.11,6.07,31.42,1012.71,2051.00,2090.25,2316.98,2501.64,349.55,327.47,27.03,0000 0000 0000 0000 000000
2014-04-03 02:21:10,0.19,4.34,0.00,18.42,24.37,27.14,6.11,31.54,1012.71,2051.00,2090.09,2316.91,2501.32,350.41,327.92,27.04,0000 0000 0000 0000 000000
2014-04-03 02:22:10,0.13,4.34,0.00,18.43,24.37,27.15,6.13,31.42,1012.71,2051.00,2090.03,2316.53,2501.11,349.98,328.02,27.05,0000 0000 0000 0000 000000
2014-04-03 02:23:10,0.21,4.34,0.00,18.44,24.37,27.17,6.21,31.54,1012.71,2050.98,2089.89,2316.20,2501.03,350.82,328.60,27.05,0000 0000 0000 0000 000000
2014-04-03 02:24:10,0.15,4.34,0.00,18.46,24.39,27.12,6.19,31.67,1012.71,2050.98,2089.52,2316.08,2501.00,350.19,328.21,27.06,0000 0000 0000 0000 000000
2014-04-03 02:25:11,0.15,4.34,0.00,18.47,24.40,27.10,6.11,31.63,1012.71,2050.97,2089.20,2316.03,2500.82,349.05,327.04,27.06,0000 0000 0000 0000 000000
2014-04-03 02:26:11,0.13,4.34,0.00,18.47,24.40,27.11,6.04,31.33,1012.71,2050.96,2089.07,2316.00,2500.39,350.68,327.96,27.07,0000 0000 0000 0000 000000
2014-04-03 02:27:11,0.13,4.34,0.00,18.47,24.40,27.16,6.07,31.71,1012.71,2050.97,2089.01,2315.90,2500.14,348.85,326.66,27.08,0000 0000 0000 0000 000000
2014-04-03 02:28:11,0.10,4.34,0.00,18.47,24.40,27.14,6.16,31.63,1012.71,2050.97,2088.75,2315.57,2500.05,349.75,327.50,27.08,0000 0000 0000 0000 000000
2014-04-03 02:29:11,0.24,4.34,0.00,18.48,24.40,27.14,6.14,31.67,1012.71,2050.98,2088.31,2315.24,2500.02,349.56,327.31,27.09,0000 0000 0000 0000 000000
2014-04-03 02:30:11,0.25,4.34,0.00,18.49,24.41,27.13,6.24,31.88,1012.71,2050.96,2088.11,2315.09,2499.91,350.44,328.13,27.09,0000 0000 0000 0000 000000
2014-04-03 02:31:12,0.11,4.34,0.00,18.49,24.42,27.15,6.24,32.04,1012.71,2050.96,2088.03,2315.03,2499.53,350.40,328.09,27.10,0000 0000 0000 0000 000000
2014-04-03 02:32:12,0.12,4.35,0.00,18.49,24.42,27.18,6.01,31.83,1012.71,2050.94,2087.98,2315.00,2499.22,349.86,327.58,27.10,0000 0000 0000 0000 000000
2014-04-03 02:33:12,0.07,4.35,0.00,18.49,24.42,27.18,6.15,31.58,1012.71,2050.90,2087.66,2314.83,2499.08,350.13,327.83,27.11,0000 0000 0000 0000 000000
2014-04-03 02:34:12,0.17,4.35,0.00,18.51,24.42,27.20,6.05,31.46,1012.71,2050.92,2087.31,2314.53,2499.02,349.86,327.57,27.12,0000 0000 0000 0000 000000
2014-04-03 02:35:13,0.23,4.35,0.00,18.51,24.42,27.22,6.14,31.58,1012.71,2050.94,2087.12,2314.24,2498.97,351.04,328.67,27.12,0000 0000 0000 0000 000000
2014-04-03 02:36:13,0.18,4.35,0.00,18.51,24.43,27.20,6.17,31.79,1012.71,2050.85,2087.04,2314.08,2498.75,350.03,327.76,27.13,0000 0000 0000 0000 000000